ROMMA est une association bénévole à but non lucratif. Votre soutien est indispensable : ADHERER à ROMMA ou FAIRE un DON

Chambon - (38, Isère)

Oisans (2460 m)   Longitude: 06° 10' 42" E   Latitude: 45° 01' 32" N Station partenaire n°803
 

Détail journalier du     <<     >>

Température Humidité Vent Dir Rafale Dir. rafale Neige 1 Neige 2
Heure (°C) (%) (km/h) (km/h) (cm) (cm)
01:00 -2.6711NNE4ENE168202
02:00 -1.9632NNE6NNE168202
03:00 -1.9652OSO5O168202
04:00 -2.5661SSO4O168202
05:00 -2.0582SSO5SO168202
06:00 -1.5493SO6SO168202
07:00 -1.7494SO6SO168202
08:00 -1.3432S5SO168202
09:00 -0.5422NE4NE168202
10:00 1.4412NE5NE167202
11:00 5.8302SO5SO167201
12:00 4.1351SSO6SSO167201
13:00 2.3292NNE7NE167202
14:00 3.7252NE7NE167202
15:00 2.7292SE6SE168202
16:00 4.8293SE12SO167202
17:00 2.6378SO13SO167202
18:00 2.3386S12SSO168202
19:00 1.8405S8SO168202
20:00 0.9488SO12SO168202
21:00 0.3566SO12SO168202
22:00 -0.3594E10E168202
23:00 -0.8633NNE9ENE168202
minuit -1.3622NNE7NNE168202

Graphique du 01-04-2019

 

Serveur OMMA